This is the latest recevied weather packets stored in our database for station/object N0KTA-2. If no packets are shown the sender has not sent any weather packets the latest 10 day(s).
| Time | Temp. | Humidity | Pressure | Rain* | Wind** | Luminosity | Snow |
|---|---|---|---|---|---|---|---|
| 1777506564 | 17.22° C | 46% | 1014.2 hPa | 0 mm | - | - | - |
| 1777505965 | 17.22° C | 48% | 1014.3 hPa | 0 mm | - | - | - |
| 1777505365 | 17.22° C | 47% | 1014.2 hPa | 0 mm | - | - | - |
| 1777504764 | 17.22° C | 47% | 1014.1 hPa | 0 mm | - | - | - |
| 1777504165 | 17.78° C | 46% | 1014.1 hPa | 0 mm | - | - | - |
| 1777503565 | 17.78° C | 47% | 1014.1 hPa | 0 mm | - | - | - |
| 1777502964 | 17.78° C | 47% | 1014.1 hPa | 0 mm | - | - | - |
| 1777502365 | 17.78° C | 46% | 1014.1 hPa | 0 mm | - | - | - |
| 1777501764 | 17.78° C | 46% | 1014.1 hPa | 0 mm | - | - | - |
| 1777501165 | 17.78° C | 46% | 1014.1 hPa | 0 mm | - | - | - |
| 1777500564 | 17.78° C | 49% | 1014 hPa | 0 mm | - | - | - |
| 1777499965 | 17.78° C | 49% | 1014.1 hPa | 0 mm | - | - | - |
| 1777499364 | 17.78° C | 48% | 1014.2 hPa | 0 mm | - | - | - |
| 1777498765 | 17.78° C | 50% | 1014.5 hPa | 0 mm | - | - | - |
| 1777498165 | 17.78° C | 49% | 1014.6 hPa | 0 mm | - | - | - |
| 1777497566 | 17.78° C | 50% | 1014.6 hPa | 0 mm | - | - | - |
| 1777496964 | 17.78° C | 49% | 1014.6 hPa | 0 mm | - | - | - |
| 1777496365 | 17.78° C | 50% | 1014.6 hPa | 0 mm | - | - | - |
| 1777495765 | 17.22° C | 48% | 1015 hPa | 0 mm | - | - | - |
| 1777495165 | 17.22° C | 51% | 1015.1 hPa | 0 mm | - | - | - |
| 1777494565 | 17.22° C | 51% | 1015.3 hPa | 0 mm | - | - | - |
| 1777493965 | 17.22° C | 52% | 1015.6 hPa | 0 mm | - | - | - |
| 1777493366 | 16.67° C | 52% | 1015.7 hPa | 0 mm | - | - | - |
| 1777492764 | 16.67° C | 52% | 1015.9 hPa | 0 mm | - | - | - |
| 1777492165 | 16.67° C | 54% | 1016.2 hPa | 0 mm | - | - | - |
* Rain latest hour (hover to see other rain measurements)
** Current wind speed in m/s (hover to see current wind gust speed)